FW7205 Weather Reports


Display with metric or nautical units.
time (UTC)temp
F
wind
direction
speed
MPH
gust
MPH
rain 1hr
in
rain 24hr
in
rain mn
in
humidity
%
barometer
mb
20260505013058 76 221 0.0 3.0 0.00 0.00 0.00 72 1008.5
20260505011557 76 0 0.0 3.0 0.00 0.00 0.00 72 1008.5
20260505010056 76 136 1.0 5.0 0.00 0.00 0.00 71 1008.4
20260505004552 77 0 2.0 5.0 0.00 0.00 0.00 70 1008.3
20260505003055 77 92 0.0 3.0 0.00 0.00 0.00 70 1008.5
20260505001552 78 0 1.0 4.0 0.00 0.00 0.00 69 1008.5
20260505000057 78 113 0.0 3.0 0.00 0.00 0.00 68 1008.5
20260504234555 78 199 1.0 6.0 0.00 0.00 0.00 68 1008.7
20260504233100 79 123 1.0 4.0 0.00 0.00 0.00 67 1008.7
20260504231557 79 142 1.0 5.0 0.00 0.00 0.00 66 1008.7
20260504230053 79 0 1.0 3.0 0.00 0.00 0.00 65 1008.9
20260504224552 80 290 0.0 4.0 0.00 0.00 0.00 64 1009.1
20260504223057 80 138 1.0 6.0 0.00 0.00 0.00 64 1009.4
20260504221604 80 176 1.0 4.0 0.00 0.00 0.00 63 1009.1
20260504220118 80 121 1.0 6.0 0.00 0.00 0.00 64 1009.4
20260504214555 79 0 1.0 5.0 0.00 0.00 0.00 63 1009.9
20260504213117 80 124 1.0 5.0 0.00 0.00 0.00 63 1009.8
20260504211556 81 123 1.0 4.0 0.00 0.00 0.00 61 1010.3
20260504210101 80 0 1.0 3.0 0.00 0.00 0.00 62 1010.5
20260504204604 80 105 1.0 6.0 0.00 0.00 0.00 61 1010.9
20260504203057 80 0 1.0 5.0 0.00 0.00 0.00 60 1011.0
20260504201603 81 277 1.0 3.0 0.00 0.00 0.00 59 1011.3
20260504200108 80 213 1.0 4.0 0.00 0.00 0.00 62 1011.5
20260504194555 80 140 1.0 6.0 0.00 0.00 0.00 62 1011.8
20260504193052 79 121 1.0 4.0 0.00 0.00 0.00 62 1012.2
20260504191551 80 0 1.0 7.0 0.00 0.00 0.00 60 1012.0
20260504190053 80 158 1.0 5.0 0.00 0.00 0.00 60 1012.1
20260504184559 79 89 1.0 5.0 0.00 0.00 0.00 60 1012.6
20260504183059 79 0 2.0 7.0 0.00 0.00 0.00 60 1012.6
20260504181554 78 230 1.0 5.0 0.00 0.00 0.00 61 1012.9
20260504180052 78 89 1.0 5.0 0.00 0.00 0.00 60 1013.0
20260504174556 78 0 1.0 6.0 0.00 0.00 0.00 61 1013.3
20260504173059 77 184 1.0 4.0 0.00 0.00 0.00 61 1013.3
20260504171558 77 234 1.0 6.0 0.00 0.00 0.00 61 1013.6
20260504100103 60 0 0.0 0.0 0.00 0.00 0.00 78 1014.5
20260504081556 61 0 0.0 0.0 0.00 0.00 0.00 76 1014.8
20260504044554 65 0 0.0 2.0 0.00 0.00 0.00 68 1017.0
20260504043058 65 0 0.0 3.0 0.00 0.00 0.00 68 1017.1
20260504041553 65 0 0.0 4.0 0.00 0.00 0.00 67 1017.4
20260504040056 66 0 0.0 2.0 0.00 0.00 0.00 65 1017.2
20260504034552 66 0 0.0 2.0 0.00 0.00 0.00 64 1017.2
20260504033102 67 191 0.0 3.0 0.00 0.00 0.00 63 1017.1
20260504031554 67 0 0.0 2.0 0.00 0.00 0.00 62 1017.0
20260504030058 68 0 0.0 1.0 0.00 0.00 0.00 62 1017.0
20260504024554 68 0 0.0 0.0 0.00 0.00 0.00 62 1016.8
20260504023055 69 0 0.0 0.0 0.00 0.00 0.00 63 1016.6
20260504021558 70 0 0.0 0.0 0.00 0.00 0.00 59 1016.6
20260504020128 70 0 0.0 0.0 0.00 0.00 0.00 59 1016.6
20260504014604 71 0 0.0 1.0 0.00 0.00 0.00 59 1016.4